period_start,C,m1,H,J0,J1,J2,J3,J4,J5,JA,JB,JC,JD,JJ,JK,JN,#
2017-05-19 00:02:57,0.07,1.25,0.00,24.33,26.80,30.23,14.34,47.09,1015.22,2031.29,2967.78,2758.97,3159.66,599.90,592.40,18.58,0000 0000 0000 0000 000000
2017-05-19 00:07:59,0.02,1.25,0.00,24.36,26.81,30.24,14.34,47.07,1015.26,2031.21,2967.01,2758.15,3159.01,600.39,592.91,18.63,0000 0000 0000 0000 000000
2017-05-19 00:13:00,0.03,1.25,0.00,24.34,26.82,30.25,14.34,47.11,1015.19,2031.15,2966.36,2757.98,3158.43,599.74,592.31,18.68,0000 0000 0000 0000 000000
2017-05-19 00:18:01,0.04,1.25,0.00,24.35,26.82,30.25,14.40,47.18,1015.16,2031.07,2965.66,2757.37,3157.96,600.15,592.64,18.73,0000 0000 0000 0000 000000
2017-05-19 00:23:03,0.02,1.26,0.00,24.33,26.82,30.22,14.37,47.17,1015.16,2031.06,2965.00,2757.00,3157.20,600.11,592.65,18.78,0000 0000 0000 0000 000000
2017-05-19 00:28:04,0.05,1.26,0.00,24.34,26.82,30.22,14.35,47.19,1015.19,2031.06,2964.19,2756.42,3156.73,599.98,592.51,18.83,0000 0000 0000 0000 000000
2017-05-19 00:33:05,0.03,1.26,0.00,24.36,26.83,30.24,14.38,47.22,1015.26,2031.08,2963.46,2755.97,3156.02,600.05,592.46,18.88,0000 0000 0000 0000 000000
2017-05-19 00:38:07,0.06,1.26,0.00,24.37,26.85,30.22,14.39,47.13,1015.44,2031.07,2962.75,2755.18,3155.20,599.91,592.52,18.93,0000 0000 0000 0000 000000
2017-05-19 00:43:08,0.01,1.26,0.00,24.36,26.85,30.22,14.32,47.10,1015.59,2031.06,2962.03,2754.94,3154.82,599.81,592.49,18.98,0000 0000 0000 0000 000000
2017-05-19 00:48:09,0.06,1.27,0.00,24.34,26.85,30.25,14.39,47.13,1015.63,2031.04,2961.23,2754.13,3154.03,599.92,592.74,19.03,0000 0000 0000 0000 000000
2017-05-19 00:53:10,0.06,1.27,0.00,24.40,26.85,30.24,14.38,47.16,1015.63,2031.03,2960.29,2753.49,3153.22,599.99,592.65,19.08,0000 0000 0000 0000 000000
2017-05-19 00:58:11,0.08,1.27,0.00,24.41,26.85,30.27,14.37,47.19,1015.64,2031.01,2958.76,2752.34,3151.90,599.95,592.51,19.13,0000 0000 0000 0000 000000
2017-05-19 01:03:13,0.06,1.28,0.00,24.45,26.86,30.26,14.32,47.06,1015.64,2031.01,2957.59,2751.49,3150.86,599.74,592.42,19.18,0000 0000 0000 0000 000000
2017-05-19 01:08:14,0.06,1.28,0.00,24.42,26.87,30.25,14.32,47.13,1015.64,2031.01,2956.49,2750.77,3149.86,600.29,592.90,19.23,0000 0000 0000 0000 000000
2017-05-19 01:13:15,0.07,1.28,0.00,24.42,26.87,30.26,14.42,47.17,1015.64,2031.01,2955.37,2749.80,3148.82,600.02,592.72,19.28,0000 0000 0000 0000 000000
2017-05-19 01:18:16,0.04,1.29,0.00,24.42,26.87,30.26,14.32,47.17,1015.64,2031.02,2954.06,2748.99,3147.83,599.90,592.61,19.33,0000 0000 0000 0000 000000
2017-05-19 01:23:18,0.05,1.29,0.00,24.42,26.87,30.27,14.42,47.24,1015.64,2031.00,2953.34,2748.27,3147.05,600.37,592.76,19.38,0000 0000 0000 0000 000000
2017-05-19 01:28:19,0.01,1.29,0.00,24.41,26.89,30.25,14.42,47.15,1015.64,2031.00,2952.89,2748.00,3146.62,600.16,592.80,19.43,0000 0000 0000 0000 000000
2017-05-19 01:33:21,0.04,1.29,0.00,24.39,26.90,30.23,14.35,47.12,1015.64,2031.00,2952.08,2747.59,3146.02,600.03,592.72,19.48,0000 0000 0000 0000 000000
2017-05-19 01:38:22,0.03,1.29,0.00,24.38,26.90,30.23,14.35,47.20,1015.64,2031.00,2951.71,2747.02,3145.54,599.94,592.66,19.53,0000 0000 0000 0000 000000
2017-05-19 01:43:23,0.02,1.30,0.00,24.40,26.90,30.24,14.31,47.02,1015.64,2031.00,2950.97,2746.80,3145.00,599.84,592.59,19.58,0000 0000 0000 0000 000000
2017-05-19 01:48:25,0.05,1.30,0.00,24.42,26.91,30.25,14.35,47.13,1015.64,2031.00,2950.11,2746.06,3144.30,600.02,592.57,19.63,0000 0000 0000 0000 000000
2017-05-19 01:53:26,0.03,1.30,0.00,24.43,26.92,30.25,14.35,47.19,1015.64,2031.00,2949.37,2745.82,3143.86,599.83,592.47,19.68,0000 0000 0000 0000 000000
2017-05-19 01:58:28,0.04,1.30,0.00,24.44,26.92,30.24,14.40,47.13,1015.64,2031.00,2948.74,2745.08,3143.09,599.77,592.30,19.73,0000 0000 0000 0000 000000
2017-05-19 02:03:29,0.03,1.30,0.00,24.40,26.92,30.24,14.38,47.19,1015.64,2030.99,2948.02,2744.82,3142.55,600.17,592.84,19.78,0000 0000 0000 0000 000000
2017-05-19 02:08:30,0.04,1.31,0.00,24.43,26.92,30.25,14.34,47.23,1015.64,2030.99,2947.43,2744.08,3142.00,600.07,592.72,19.83,0000 0000 0000 0000 000000
2017-05-19 02:13:31,0.04,1.31,0.00,24.41,26.94,30.25,14.44,47.18,1015.65,2030.98,2946.57,2743.78,3141.32,600.06,592.67,19.88,0000 0000 0000 0000 000000
2017-05-19 02:18:33,0.06,1.31,0.00,24.42,26.95,30.28,14.36,47.09,1015.65,2030.97,2945.60,2742.83,3140.41,600.06,592.81,19.93,0000 0000 0000 0000 000000
2017-05-19 02:23:34,0.03,1.31,0.00,24.43,26.95,30.28,14.31,47.13,1015.65,2030.97,2944.94,2742.07,3139.78,600.04,592.64,19.98,0000 0000 0000 0000 000000
2017-05-19 02:28:35,0.05,1.31,0.00,24.43,26.95,30.28,14.37,47.22,1015.64,2030.99,2943.96,2741.70,3138.89,599.89,592.40,20.03,0000 0000 0000 0000 000000
2017-05-19 02:33:36,0.09,1.32,0.00,24.43,26.95,30.28,14.44,47.11,1015.68,2030.98,2942.46,2740.45,3137.61,600.05,592.72,20.08,0000 0000 0000 0000 000000
2017-05-19 02:38:37,0.04,1.32,0.00,24.40,26.96,30.27,14.37,47.14,1015.83,2030.97,2941.29,2739.85,3136.82,599.93,592.74,20.13,0000 0000 0000 0000 000000
2017-05-19 02:43:39,0.04,1.33,0.00,24.41,26.97,30.29,14.31,47.15,1015.98,2030.97,2940.58,2739.05,3135.95,599.84,592.73,20.18,0000 0000 0000 0000 000000
2017-05-19 02:48:40,0.12,1.33,0.00,24.44,26.97,30.28,14.39,47.16,1016.09,2030.95,2938.67,2737.75,3134.58,600.24,593.10,20.23,0000 0000 0000 0000 000000
2017-05-19 02:53:42,0.05,1.33,0.00,24.45,26.97,30.28,14.38,47.08,1016.08,2030.95,2937.43,2736.85,3133.53,599.96,592.78,20.28,0000 0000 0000 0000 000000
2017-05-19 02:58:43,0.07,1.34,0.00,24.37,26.97,30.27,14.46,47.13,1016.11,2030.94,2936.18,2735.82,3132.52,599.95,592.95,20.33,0000 0000 0000 0000 000000
2017-05-19 03:03:44,0.10,1.34,0.00,24.42,26.98,30.28,14.34,47.11,1016.08,2030.92,2934.42,2734.58,3130.93,599.82,592.71,20.39,0000 0000 0000 0000 000000
2017-05-19 03:08:45,0.08,1.35,0.00,24.41,26.99,30.30,14.38,47.14,1015.98,2030.88,2932.68,2733.18,3129.55,600.03,592.87,20.44,0000 0000 0000 0000 000000
2017-05-19 03:13:47,0.09,1.35,0.00,24.42,27.00,30.30,14.27,47.06,1015.93,2030.89,2931.01,2732.04,3128.18,599.85,592.51,20.49,0000 0000 0000 0000 000000
2017-05-19 03:18:48,0.11,1.36,0.00,24.43,27.00,30.31,14.49,47.15,1015.84,2030.84,2929.20,2730.70,3126.62,600.26,592.98,20.54,0000 0000 0000 0000 000000
2017-05-19 03:23:49,0.10,1.36,0.00,24.40,27.00,30.31,14.38,47.22,1015.92,2030.67,2926.96,2729.06,3124.81,599.97,592.80,20.59,0000 0000 0000 0000 000000
2017-05-19 03:28:50,0.11,1.37,0.00,24.38,27.00,30.29,14.42,47.12,1016.06,2030.65,2924.88,2727.75,3123.31,600.05,593.17,20.64,0000 0000 0000 0000 000000
2017-05-19 03:33:52,0.09,1.37,0.00,24.38,27.00,30.30,14.39,47.13,1016.09,2030.64,2923.14,2726.43,3121.90,600.18,593.21,20.69,0000 0000 0000 0000 000000
2017-05-19 03:38:53,0.04,1.38,0.00,24.31,27.02,30.31,14.30,47.11,1016.12,2030.64,2921.92,2725.61,3120.92,600.13,593.23,20.74,0000 0000 0000 0000 000000
2017-05-19 03:43:55,0.06,1.38,0.00,24.42,27.02,30.32,14.37,47.08,1016.13,2030.55,2920.88,2724.92,3120.05,599.71,592.65,20.79,0000 0000 0000 0000 000000
2017-05-19 03:48:56,0.03,1.38,0.00,24.47,27.02,30.33,14.43,47.23,1016.13,2030.38,2919.99,2724.11,3119.22,600.21,592.99,20.84,0000 0000 0000 0000 000000
2017-05-19 03:53:57,0.09,1.38,0.00,24.41,27.02,30.31,14.29,47.09,1016.13,2030.36,2918.71,2723.27,3118.14,599.93,592.80,20.89,0000 0000 0000 0000 000000
2017-05-19 03:58:58,0.07,1.39,0.00,24.30,27.02,30.30,14.34,47.27,1016.13,2030.22,2917.07,2721.91,3116.58,600.03,593.18,20.94,0000 0000 0000 0000 000000
2017-05-19 04:03:59,0.07,1.39,0.00,24.39,27.02,30.29,14.35,47.17,1016.13,2030.27,2915.76,2721.01,3115.58,599.99,592.98,20.99,0000 0000 0000 0000 000000
2017-05-19 04:09:01,0.06,1.40,0.00,24.42,27.02,30.28,14.36,47.11,1016.13,2030.18,2914.39,2720.09,3114.51,599.93,592.94,21.04,0000 0000 0000 0000 000000
2017-05-19 04:14:02,0.07,1.40,0.00,24.37,27.02,30.27,14.38,47.15,1016.13,2030.17,2913.09,2719.14,3113.55,599.86,592.85,21.09,0000 0000 0000 0000 000000
2017-05-19 04:19:03,0.05,1.40,0.00,24.28,27.02,30.27,14.35,47.23,1016.13,2030.17,2912.05,2718.54,3112.73,599.96,593.21,21.14,0000 0000 0000 0000 000000
2017-05-19 04:24:05,0.07,1.41,0.00,24.30,27.02,30.26,14.34,47.24,1016.13,2030.11,2910.52,2717.40,3111.59,599.83,592.97,21.19,0000 0000 0000 0000 000000
2017-05-19 04:29:06,0.02,1.41,0.00,24.42,27.02,30.27,14.35,47.13,1016.13,2030.07,2909.74,2716.95,3110.92,600.15,593.10,21.24,0000 0000 0000 0000 000000
2017-05-19 04:34:07,0.07,1.41,0.00,24.34,27.02,30.26,14.39,47.15,1016.13,2030.11,2908.59,2716.04,3109.98,600.29,593.33,21.29,0000 0000 0000 0000 000000
2017-05-19 04:39:09,0.07,1.42,0.00,24.35,27.02,30.25,14.37,47.16,1016.13,2030.10,2907.14,2715.08,3108.90,600.02,593.06,21.34,0000 0000 0000 0000 000000
2017-05-19 04:44:10,0.06,1.42,0.00,24.35,27.02,30.25,14.35,47.05,1016.14,2030.08,2906.14,2714.27,3108.04,599.75,592.72,21.39,0000 0000 0000 0000 000000
2017-05-19 04:49:11,0.04,1.42,0.00,24.34,27.02,30.25,14.34,47.17,1016.14,2030.10,2905.28,2713.82,3107.21,599.72,592.81,21.44,0000 0000 0000 0000 000000
2017-05-19 04:54:12,0.06,1.42,0.00,24.33,27.02,30.25,14.30,47.23,1016.14,2030.24,2904.48,2713.06,3106.72,599.84,592.95,21.49,0000 0000 0000 0000 000000
2017-05-19 04:59:13,0.06,1.43,0.00,24.44,27.02,30.25,14.31,47.09,1016.13,2030.18,2903.37,2712.29,3105.72,599.99,592.91,21.54,0000 0000 0000 0000 000000
2017-05-19 05:04:15,0.05,1.43,0.00,24.30,27.02,30.26,14.44,47.29,1016.13,2030.23,2902.31,2711.66,3104.94,600.29,593.38,21.59,0000 0000 0000 0000 000000
2017-05-19 05:09:16,0.05,1.43,0.00,24.30,27.02,30.24,14.31,47.10,1016.14,2030.26,2901.61,2711.03,3104.15,599.72,592.75,21.64,0000 0000 0000 0000 000000
2017-05-19 05:14:17,0.03,1.43,0.00,24.31,27.02,30.25,14.40,47.03,1016.14,2030.29,2900.85,2710.60,3103.65,599.91,593.11,21.69,0000 0000 0000 0000 000000
2017-05-19 05:19:19,0.03,1.44,0.00,24.40,27.02,30.26,14.36,46.99,1016.15,2030.23,2900.02,2710.00,3102.96,599.77,592.69,21.74,0000 0000 0000 0000 000000
2017-05-19 05:24:20,0.04,1.44,0.00,24.30,27.02,30.24,14.39,47.27,1016.14,2030.16,2899.24,2709.42,3102.16,599.92,593.04,21.79,0000 0000 0000 0000 000000
2017-05-19 05:29:21,0.01,1.44,0.00,24.29,27.02,30.22,14.33,47.13,1016.14,2030.13,2898.98,2709.01,3101.97,599.99,593.07,21.84,0000 0000 0000 0000 000000
2017-05-19 05:34:23,0.02,1.44,0.00,24.34,27.02,30.22,14.33,47.13,1016.14,2030.12,2898.25,2708.95,3101.48,599.67,592.91,21.89,0000 0000 0000 0000 000000
2017-05-19 05:39:24,0.03,1.44,0.00,24.34,27.02,30.23,14.35,47.13,1016.13,2030.12,2897.95,2708.28,3101.01,599.89,592.96,21.94,0000 0000 0000 0000 000000
2017-05-19 05:44:25,0.03,1.44,0.00,24.27,27.01,30.22,14.38,47.12,1016.14,2030.18,2897.27,2708.02,3100.82,599.81,593.03,21.99,0000 0000 0000 0000 000000
2017-05-19 05:49:27,0.02,1.45,0.00,24.28,27.00,30.21,14.37,47.08,1016.14,2030.28,2896.96,2707.96,3100.07,600.17,593.39,22.04,0000 0000 0000 0000 000000
2017-05-19 05:54:28,0.04,1.45,0.00,24.28,27.00,30.20,14.46,47.31,1016.13,2030.25,2896.17,2707.24,3099.93,599.76,593.03,22.09,0000 0000 0000 0000 000000
2017-05-19 05:59:30,0.04,1.45,0.00,24.25,27.00,30.19,14.38,47.27,1016.14,2030.40,2895.93,2707.00,3099.30,599.84,593.09,22.14,0000 0000 0000 0000 000000
2017-05-19 06:04:31,0.01,1.45,0.00,24.34,27.00,30.20,14.33,47.28,1016.15,2030.49,2895.17,2706.97,3099.01,599.91,593.00,22.19,0000 0000 0000 0000 000000
2017-05-19 06:09:33,0.04,1.45,0.00,24.27,27.00,30.19,14.44,47.32,1016.15,2030.62,2894.97,2706.53,3098.96,600.19,593.46,22.24,0000 0000 0000 0000 000000
2017-05-19 06:14:34,0.03,1.45,0.00,24.21,27.00,30.19,14.44,47.30,1016.18,2030.56,2894.25,2706.07,3098.26,600.33,593.73,22.29,0000 0000 0000 0000 000000
2017-05-19 06:19:35,0.00,1.45,0.00,24.37,27.00,30.20,14.37,47.25,1016.23,2030.51,2893.98,2705.96,3098.00,600.17,593.15,22.34,0000 0000 0000 0000 000000
2017-05-19 06:24:36,0.06,1.46,0.00,24.33,27.00,30.20,14.28,47.27,1016.39,2030.52,2893.33,2705.31,3097.51,599.91,593.19,22.39,0000 0000 0000 0000 000000
2017-05-19 06:29:37,0.03,1.46,0.00,24.35,27.00,30.19,14.35,47.28,1016.47,2030.51,2892.77,2704.96,3096.95,599.79,593.19,22.44,0000 0000 0000 0000 000000
2017-05-19 06:34:39,0.06,1.46,0.00,24.22,26.99,30.19,14.34,47.32,1016.55,2030.71,2892.03,2704.50,3096.31,599.88,593.43,22.49,0000 0000 0000 0000 000000
2017-05-19 06:39:40,0.02,1.46,0.00,24.25,26.99,30.18,14.42,47.38,1016.62,2030.75,2891.50,2704.02,3096.00,600.07,593.64,22.54,0000 0000 0000 0000 000000
2017-05-19 06:44:41,0.02,1.46,0.00,24.30,26.97,30.17,14.36,47.37,1016.62,2030.75,2891.01,2703.97,3095.71,599.88,593.20,22.59,0000 0000 0000 0000 000000
2017-05-19 06:49:42,0.04,1.46,0.00,24.22,26.97,30.18,14.36,47.41,1016.62,2030.79,2890.69,2703.53,3095.07,599.84,593.37,22.64,0000 0000 0000 0000 000000
2017-05-19 06:54:43,-0.02,1.47,0.00,24.23,26.97,30.17,14.37,47.45,1016.62,2030.51,2890.04,2703.02,3094.97,600.07,593.74,22.69,0000 0000 0000 0000 000000
2017-05-19 06:59:45,0.02,1.47,0.00,24.32,26.97,30.17,14.37,47.38,1016.61,2030.36,2889.86,2702.80,3094.40,599.59,592.98,22.74,0000 0000 0000 0000 000000
2017-05-19 07:04:46,0.05,1.47,0.00,24.22,26.97,30.16,14.37,47.43,1016.62,2030.49,2889.11,2702.08,3093.99,599.80,593.45,22.79,0000 0000 0000 0000 000000
2017-05-19 07:09:47,0.02,1.47,0.00,24.20,26.97,30.16,14.38,47.45,1016.62,2030.72,2889.01,2702.01,3093.92,600.06,593.68,22.84,0000 0000 0000 0000 000000
2017-05-19 07:14:49,-0.01,1.47,0.00,24.25,26.97,30.17,14.38,47.52,1016.62,2030.56,2888.99,2702.00,3093.30,600.02,593.52,22.89,0000 0000 0000 0000 000000
2017-05-19 07:19:50,0.00,1.47,0.00,24.30,26.97,30.15,14.46,47.41,1016.63,2030.40,2888.77,2701.98,3093.02,600.00,593.48,22.94,0000 0000 0000 0000 000000
2017-05-19 07:24:52,0.02,1.47,0.00,24.29,26.97,30.16,14.37,47.39,1016.64,2030.41,2888.11,2701.89,3093.00,599.85,593.30,22.99,0000 0000 0000 0000 000000
2017-05-19 07:29:53,0.02,1.47,0.00,24.29,26.97,30.16,14.29,47.27,1016.63,2030.47,2888.00,2701.34,3092.91,599.44,593.08,23.04,0000 0000 0000 0000 000000
2017-05-19 07:34:54,0.02,1.47,0.00,24.25,26.97,30.17,14.33,47.36,1016.71,2030.45,2887.92,2701.02,3092.37,599.79,593.38,23.09,0000 0000 0000 0000 000000
2017-05-19 07:39:56,0.01,1.47,0.00,24.20,26.97,30.15,14.44,47.40,1016.71,2030.33,2887.30,2701.00,3092.02,600.10,593.80,23.14,0000 0000 0000 0000 000000
2017-05-19 07:44:57,-0.00,1.47,0.00,24.22,26.97,30.14,14.35,47.20,1016.84,2030.32,2887.01,2700.98,3091.99,599.74,593.70,23.19,0000 0000 0000 0000 000000
2017-05-19 07:49:58,0.01,1.47,0.00,24.23,26.97,30.15,14.38,47.29,1017.05,2030.28,2886.95,2700.80,3091.78,599.74,593.62,23.24,0000 0000 0000 0000 000000
2017-05-19 07:54:59,0.05,1.48,0.00,24.29,26.97,30.15,14.38,47.33,1017.10,2030.44,2886.36,2700.31,3091.21,600.10,593.82,23.29,0000 0000 0000 0000 000000
2017-05-19 08:00:00,0.02,1.48,0.00,24.25,26.97,30.15,14.38,47.45,1017.10,2030.44,2886.00,2700.02,3091.00,599.89,593.66,23.34,0000 0000 0000 0000 000000
2017-05-19 08:05:02,0.04,1.48,0.00,24.17,26.97,30.15,14.36,47.43,1017.10,2030.57,2885.30,2699.93,3090.70,599.73,593.74,23.39,0000 0000 0000 0000 000000
2017-05-19 08:10:03,0.05,1.48,0.00,24.13,26.96,30.16,14.39,47.33,1017.11,2030.80,2885.01,2699.33,3090.05,599.90,593.93,23.44,0000 0000 0000 0000 000000
2017-05-19 08:15:04,0.01,1.48,0.00,24.24,26.95,30.15,14.37,47.23,1017.12,2030.81,2884.76,2699.01,3090.00,599.90,593.76,23.49,0000 0000 0000 0000 000000
2017-05-19 08:20:05,0.03,1.48,0.00,24.25,26.95,30.14,14.39,47.40,1017.13,2030.88,2884.08,2698.99,3089.72,599.98,593.73,23.54,0000 0000 0000 0000 000000
2017-05-19 08:25:06,0.03,1.48,0.00,24.21,26.95,30.14,14.36,47.26,1017.21,2030.70,2883.81,2698.47,3089.02,599.72,593.84,23.59,0000 0000 0000 0000 000000
2017-05-19 08:30:08,0.03,1.49,0.00,24.27,26.95,30.14,14.42,47.23,1017.37,2030.88,2883.21,2698.09,3089.00,599.93,593.83,23.64,0000 0000 0000 0000 000000
2017-05-19 08:35:09,0.01,1.49,0.00,24.21,26.95,30.14,14.48,47.34,1017.47,2030.90,2883.00,2698.01,3088.87,600.12,594.16,23.69,0000 0000 0000 0000 000000
2017-05-19 08:40:11,0.01,1.49,0.00,24.21,26.94,30.14,14.29,47.15,1017.55,2030.92,2882.93,2698.00,3088.19,599.83,594.05,23.74,0000 0000 0000 0000 000000
2017-05-19 08:45:12,0.02,1.49,0.00,24.16,26.92,30.14,14.44,47.33,1017.58,2030.93,2882.18,2697.87,3088.01,600.27,594.55,23.79,0000 0000 0000 0000 000000
2017-05-19 08:50:13,0.02,1.49,0.00,24.23,26.92,30.13,14.40,47.22,1017.58,2030.92,2881.94,2697.17,3087.89,599.83,594.01,23.84,0000 0000 0000 0000 000000
2017-05-19 08:55:14,0.03,1.49,0.00,24.15,26.92,30.13,14.47,47.28,1017.59,2030.95,2881.20,2697.00,3087.17,600.17,594.45,23.89,0000 0000 0000 0000 000000
2017-05-19 09:00:15,0.00,1.49,0.00,24.27,26.92,30.12,14.37,47.20,1017.59,2030.97,2880.97,2696.97,3087.00,600.15,594.18,23.94,0000 0000 0000 0000 000000
2017-05-19 09:05:17,0.03,1.49,0.00,24.22,26.91,30.13,14.36,47.25,1017.59,2030.97,2880.38,2696.67,3086.86,599.55,593.64,23.99,0000 0000 0000 0000 000000
2017-05-19 09:10:18,0.02,1.50,0.00,24.24,26.90,30.13,14.39,47.28,1017.58,2030.96,2880.02,2696.12,3086.21,599.96,594.13,24.05,0000 0000 0000 0000 000000
2017-05-19 09:15:19,0.00,1.50,0.00,24.20,26.90,30.13,14.43,47.33,1017.59,2030.99,2879.92,2696.00,3086.01,599.90,594.20,24.10,0000 0000 0000 0000 000000
2017-05-19 09:20:21,0.03,1.50,0.00,24.18,26.90,30.13,14.44,47.33,1017.59,2030.97,2879.12,2695.79,3085.72,600.26,594.43,24.14,0000 0000 0000 0000 000000
2017-05-19 09:25:22,0.04,1.50,0.00,24.16,26.90,30.13,14.44,47.30,1017.59,2030.99,2878.52,2695.04,3085.01,600.28,594.38,24.19,0000 0000 0000 0000 000000
2017-05-19 09:30:23,0.01,1.50,0.00,24.16,26.89,30.12,14.44,47.21,1017.59,2030.98,2878.01,2694.96,3084.58,599.94,594.24,24.25,0000 0000 0000 0000 000000
2017-05-19 09:35:24,0.03,1.50,0.00,24.19,26.88,30.12,14.35,47.26,1017.60,2030.98,2877.70,2694.57,3084.05,600.15,594.38,24.30,0000 0000 0000 0000 000000
2017-05-19 09:40:26,0.02,1.50,0.00,24.27,26.87,30.11,14.35,47.18,1017.60,2030.99,2877.11,2694.08,3083.97,599.84,593.93,24.35,0000 0000 0000 0000 000000
2017-05-19 09:45:27,0.03,1.51,0.00,24.26,26.87,30.12,14.49,47.17,1017.61,2030.99,2876.53,2693.99,3083.24,600.26,594.33,24.40,0000 0000 0000 0000 000000
2017-05-19 09:50:28,0.03,1.51,0.00,24.16,26.87,30.11,14.39,47.23,1017.62,2030.99,2875.99,2693.28,3082.97,600.09,594.43,24.45,0000 0000 0000 0000 000000
2017-05-19 09:55:29,0.03,1.51,0.00,24.13,26.87,30.11,14.45,47.28,1017.62,2030.99,2875.35,2693.00,3082.44,600.05,594.40,24.50,0000 0000 0000 0000 000000
2017-05-19 10:00:31,0.00,1.51,0.00,24.27,26.86,30.10,14.40,47.21,1017.63,2030.99,2875.00,2692.98,3082.02,599.98,594.01,24.55,0000 0000 0000 0000 000000
2017-05-19 10:05:32,0.02,1.51,0.00,24.23,26.85,30.10,14.46,47.21,1017.62,2030.99,2874.62,2692.74,3081.93,600.03,594.23,24.60,0000 0000 0000 0000 000000
2017-05-19 10:10:33,0.04,1.51,0.00,24.20,26.85,30.10,14.35,47.25,1017.67,2031.00,2873.96,2692.04,3081.14,599.78,594.03,24.65,0000 0000 0000 0000 000000
2017-05-19 10:15:34,0.02,1.52,0.00,24.21,26.85,30.10,14.39,47.34,1017.88,2030.99,2873.11,2691.91,3080.88,600.02,594.37,24.70,0000 0000 0000 0000 000000
2017-05-19 10:20:36,0.04,1.52,0.00,24.16,26.85,30.10,14.37,47.31,1018.06,2030.99,2872.79,2691.23,3080.14,600.01,594.57,24.75,0000 0000 0000 0000 000000
2017-05-19 10:25:37,0.01,1.52,0.00,24.17,26.83,30.10,14.52,47.27,1018.08,2031.00,2872.06,2691.00,3079.97,600.07,594.57,24.80,0000 0000 0000 0000 000000
2017-05-19 10:30:38,0.03,1.52,0.00,24.23,26.82,30.10,14.33,47.15,1018.08,2031.00,2871.64,2690.82,3079.43,599.83,594.20,24.85,0000 0000 0000 0000 000000
2017-05-19 10:35:40,0.03,1.52,0.00,24.23,26.82,30.09,14.44,47.26,1018.08,2031.00,2871.01,2690.13,3078.99,600.00,594.39,24.90,0000 0000 0000 0000 000000
2017-05-19 10:40:41,0.03,1.52,0.00,24.17,26.82,30.09,14.44,47.33,1018.08,2031.00,2870.31,2689.99,3078.33,600.04,594.48,24.95,0000 0000 0000 0000 000000
2017-05-19 10:45:42,0.02,1.52,0.00,24.24,26.82,30.10,14.47,47.26,1018.08,2031.00,2869.94,2689.58,3078.00,600.20,594.74,25.00,0000 0000 0000 0000 000000
2017-05-19 10:50:44,0.04,1.53,0.00,24.24,26.82,30.10,14.49,47.13,1018.08,2031.00,2869.14,2689.02,3077.49,600.07,594.48,25.05,0000 0000 0000 0000 000000
2017-05-19 10:55:45,0.01,1.53,0.00,24.19,26.80,30.08,14.42,47.21,1018.09,2031.01,2868.71,2688.92,3077.00,599.94,594.41,25.10,0000 0000 0000 0000 000000
2017-05-19 11:00:47,0.04,1.53,0.00,24.19,26.80,30.08,14.37,47.11,1018.10,2031.00,2868.03,2688.28,3076.63,599.69,594.35,25.15,0000 0000 0000 0000 000000
2017-05-19 11:05:48,0.02,1.53,0.00,24.26,26.80,30.08,14.42,47.26,1018.08,2031.02,2867.56,2688.01,3076.01,600.17,594.41,25.20,0000 0000 0000 0000 000000
2017-05-19 11:10:49,0.02,1.53,0.00,24.25,26.80,30.07,14.33,47.27,1018.10,2031.02,2866.88,2687.82,3075.69,599.75,594.15,25.25,0000 0000 0000 0000 000000
2017-05-19 11:15:50,0.04,1.54,0.00,24.17,26.80,30.07,14.42,47.29,1018.09,2031.03,2866.11,2687.09,3075.03,599.93,594.49,25.30,0000 0000 0000 0000 000000
2017-05-19 11:20:52,0.04,1.54,0.00,24.27,26.79,30.07,14.38,47.17,1018.09,2031.06,2865.50,2686.97,3074.39,600.00,594.32,25.35,0000 0000 0000 0000 000000
2017-05-19 11:25:53,0.02,1.54,0.00,24.32,26.79,30.07,14.41,47.29,1018.09,2031.03,2865.00,2686.42,3074.00,600.11,594.30,25.40,0000 0000 0000 0000 000000
2017-05-19 11:30:55,0.03,1.54,0.00,24.18,26.79,30.07,14.41,47.33,1018.10,2031.03,2864.57,2686.02,3073.61,599.95,594.48,25.45,0000 0000 0000 0000 000000
2017-05-19 11:35:56,0.01,1.54,0.00,24.32,26.79,30.07,14.40,47.37,1018.09,2031.03,2864.01,2685.98,3073.03,600.01,594.34,25.50,0000 0000 0000 0000 000000
2017-05-19 11:40:57,0.04,1.54,0.00,24.36,26.79,30.07,14.51,47.42,1018.08,2031.05,2863.37,2685.41,3072.90,600.21,594.32,25.55,0000 0000 0000 0000 000000
2017-05-19 11:45:58,0.02,1.54,0.00,24.29,26.79,30.06,14.36,47.34,1018.08,2031.05,2862.91,2685.02,3072.13,600.06,594.40,25.60,0000 0000 0000 0000 000000
2017-05-19 11:51:00,0.02,1.55,0.00,24.31,26.79,30.07,14.45,47.42,1018.08,2031.05,2862.08,2684.93,3071.93,600.06,594.31,25.65,0000 0000 0000 0000 000000
2017-05-19 11:56:01,0.05,1.55,0.00,24.34,26.80,30.09,14.55,47.49,1018.08,2031.04,2861.67,2684.24,3071.18,600.15,594.34,25.70,0000 0000 0000 0000 000000
2017-05-19 12:01:03,0.01,1.55,0.00,24.25,26.80,30.10,14.52,47.38,1018.08,2031.01,2861.01,2683.99,3070.99,600.18,594.63,25.75,0000 0000 0000 0000 000000
2017-05-19 12:06:04,0.05,1.55,0.00,24.30,26.80,30.10,14.34,47.25,1018.08,2031.03,2860.38,2683.74,3070.37,599.81,594.11,25.80,0000 0000 0000 0000 000000
2017-05-19 12:11:05,0.02,1.55,0.00,24.36,26.80,30.10,14.38,47.34,1018.08,2031.03,2859.96,2683.05,3070.00,599.97,594.04,25.85,0000 0000 0000 0000 000000
2017-05-19 12:16:06,0.03,1.55,0.00,24.29,26.80,30.11,14.38,47.25,1018.08,2031.00,2859.13,2682.91,3069.41,599.78,594.13,25.90,0000 0000 0000 0000 000000
2017-05-19 12:21:07,0.04,1.56,0.00,24.30,26.80,30.10,14.40,47.32,1018.08,2031.01,2858.57,2682.12,3068.96,600.17,594.59,25.95,0000 0000 0000 0000 000000
2017-05-19 12:26:09,0.02,1.56,0.00,24.32,26.80,30.10,14.43,47.13,1018.07,2031.01,2857.98,2681.99,3068.20,600.06,594.28,26.00,0000 0000 0000 0000 000000
2017-05-19 12:31:10,0.03,1.56,0.00,24.33,26.81,30.12,14.41,47.15,1018.07,2031.02,2857.27,2681.63,3067.98,600.19,594.36,26.05,0000 0000 0000 0000 000000
2017-05-19 12:36:11,0.03,1.56,0.00,24.34,26.82,30.11,14.41,47.28,1018.07,2031.02,2856.82,2681.02,3067.39,600.22,594.49,26.10,0000 0000 0000 0000 000000
2017-05-19 12:41:12,0.02,1.56,0.00,24.27,26.82,30.11,14.44,47.26,1018.03,2031.00,2856.03,2680.79,3066.94,600.07,594.34,26.15,0000 0000 0000 0000 000000
2017-05-19 12:46:14,0.05,1.57,0.00,24.31,26.82,30.11,14.32,47.22,1018.03,2031.01,2855.37,2680.10,3066.20,599.91,594.14,26.20,0000 0000 0000 0000 000000
2017-05-19 12:51:15,0.02,1.57,0.00,24.33,26.82,30.13,14.36,47.13,1018.06,2031.00,2854.75,2679.94,3065.81,599.87,594.10,26.25,0000 0000 0000 0000 000000
2017-05-19 12:56:16,0.04,1.57,0.00,24.35,26.82,30.13,14.37,47.32,1018.07,2031.00,2854.02,2679.26,3065.06,599.92,594.01,26.30,0000 0000 0000 0000 000000